Regional Weather Roundup
Issued by NWS Burlington, VT

Home | Current Version | Previous Version | Text Only | Print | Product List | Glossary On
Versions: 1 2 3 4 5 6 7 8 9 10 11 12 13 14 15 16 17 18 19 20 21 22 23 24 25 26 27 28 29 30 31 32 33 34 35 36 37 38 39 40 41 42 43 44 45 46 47 48 49 50
000
ASUS41 KBTV 280830
RWRBTV
VERMONT REGIONAL WEATHER ROUNDUP
NATIONAL WEATHER SERVICE BURLINGTON VT
400 AM EDT THU JUL 28 2016

NOTE: "FAIR" INDICATES FEW OR NO CLOUDS BELOW 12,000 FEET WITH NO
SIGNIFICANT WEATHER AND/OR OBSTRUCTIONS TO VISIBILITY.

* THESE REPORTS ARE NOT UNDER NWS QUALITY CONTROL AND/OR DO NOT
  REPORT WEATHER SUCH AS PRECIPITATION AND FOG.

VTZ001>019-280900-
_____VERMONT_____


CITY           SKY/WX    TMP DP  RH WIND       PRES   REMARKS
BURLINGTON     FAIR      70  63  78 E5        29.87R
MONTPELIER     FAIR      61  60  97 CALM      29.94F
MORRISVILLE    FAIR      62  60  93 CALM      29.90F
ST. JOHNSBURY*   N/A     64  60  87 MISG      29.88F
LYNDONVILLE*   FAIR      62  61  97 CALM      29.93S FOG
MIDDLEBURY*    FAIR      68  61  76 CALM      29.88S
RUTLAND*       MOCLDY    64  60  87 SE6       29.92S
SPRINGFIELD    FAIR      61  59  93 CALM      29.92S
HIGHGATE*      CLOUDY    68  65  89 CALM      29.87R
NEWPORT*       FAIR      62  61  96 CALM      29.90S
BENNINGTON     FAIR      58  56  93 CALM      29.92F
SUTTON*          N/A     61 N/A N/A MISG        N/A
GALLUP MILLS*    N/A     57 N/A N/A MISG        N/A
UNION VILLAGE*   N/A     63 N/A N/A MISG        N/A
MT. MANSFIELD*   N/A     63 N/A N/A NW20        N/A

_____LAKE CHAMPLAIN_____


CITY           SKY/WX    TMP DP  RH WIND       PRES   REMARKS
BURTON ISLAND*   N/A     75  64  69 S3          N/A
COLCHESTER RF*   N/A     75  66  73 S12         N/A
DIAMOND ISL*     N/A     73  64  73 S3          N/A

$$

NYZ007-026>031-035-052-083-087-280900-
_____NORTHERN NEW YORK_____


CITY           SKY/WX    TMP DP  RH WIND       PRES   REMARKS
PLATTSBURGH    CLOUDY    73  64  73 CALM      29.86R
SARANAC LAKE   CLEAR     59  56  89 CALM      29.92S
MASSENA        MOCLDY    68  63  84 S3        29.87S
OGDENSBURG*    PTCLDY    68  66  94 CALM      29.86F
POTSDAM*       PTCLDY    68  66  94 CALM      29.88S
STARK FALLS*     N/A    108 N/A N/A SW2         N/A
WATERTOWN      CLOUDY    69  66  90 S6        29.87S
FT DRUM        PTCLDY    69  65  88 SW7       29.88S
ALBANY         CLEAR     67  61  81 CALM      29.90F
GLENS FALLS    CLEAR     66  61  84 CALM      29.89F

$$
NHZ002-005-011-280900-
_____NEW HAMPSHIRE_____


CITY           SKY/WX    TMP DP  RH WIND       PRES   REMARKS
LEBANON        CLOUDY    63  60  90 S3        29.90S
MT WASHINGTON  MOCLDY    54  52  94 W23         N/A
PLYMOUTH       FAIR      59  58  97 CALM      29.91S
WHITEFIELD     MOCLDY    60  56  86 CALM      29.91F

$$

_____REGIONAL QUEBEC LOCATIONS_____


CITY           SKY/WX    TMP DP  RH WIND       PRES   REMARKS
MONTREAL       MOCLDY    72  63  73 NW10      29.84S
QUEBEC CITY    MOCLDY    64  61  88 NW6       29.84R
SHERBROOKE     LGT RAIN  63  63 100 NW2       29.88R

_____REGIONAL ONTARIO LOCATIONS_____


CITY           SKY/WX    TMP DP  RH WIND       PRES   REMARKS
OTTAWA         CLOUDY    70  64  83 N7        29.88S

______KEY______
VSB  - VISIBILITY IN MILES
WCI  - WIND CHILL INDEX
HX   - HEAT INDEX
$$
NNNN




USA.gov is the U.S. government's official web portal to all federal, state and local government web resources and services.